Location:  
MeteoStar


Sort by weather type Sort by elevation Sort by visibility Sort from west to east north Sort from north to south Alphabetically Sort from strongest wind speed Sort from lowest to highest pressure Sort from highest to lowest dew point temperature Sort coolest temperatures to warmest Sort warm temperatures to coolest
 Metric

Current Observations for United Kingdom sorted by highst dew point temperature

Baltasound01:00ZMist49 4741027.6WSW 30 Gusting to 41 4149
Lerwick01:00ZCloudy48 4661029.3W 37 Gusting to 47 38269
Stornoway01:00ZNot Avail.49 46181034.4SSW 20 Gusting to 30 4229
Scatsa / Shetland Island01:20ZCloudy48 46251028.1WSW 31 3972
Benbecula01:20ZCloudy50 46251036.1SW 24 4319
Sumburgh Cape 01:20ZCloudy48 4651031.1W 29 Gusting to 39 3916
Fair Isle01:00ZHaze48 4551031.9WSW 30 Gusting to 42 39187
Tiree01:00ZHaze48 4551040.4SW 15 4239
Aultbea01:00ZNot Avail.48 4481037.5SSW 21 Gusting to 31 4136
Kirkwall Airport01:00ZNot Avail.49 44131032.6WSW 24 Gusting to 33 4268
Altnaharra01:00ZNot Avail.49 43251035.3S 6 Gusting to 18 46265
Loch Glascanoch01:00ZNot Avail.47 41201037.3WSW 7 44869
Inverness / Dalcross01:20ZMostly Cloudy46 41251037.1SSW 21 3829
Wick01:00ZNot Avail.48 41251034SSW 15 Gusting to 27 42127
Walney Island01:00ZNot Avail.43 41181047W 8 3849
Kinloss01:00ZNot Avail.47 40301036.0SW 23 Gusting to 36 3922
Tain Range01:00ZNot Avail.48 40251035.6SW 16 Gusting to 26 4213
Valley01:00ZNot Avail.45 40121047.9SW 14 393
Aberdaron01:00ZNot Avail.45 39351049SW 13 39311
Dundrennan01:00ZNot Avail.41 39121045.6WSW 7 36374
Lossiemouth01:00ZCloudy47 39201035.9WSW 23 Gusting to 30 3942
Glasgow Airport01:20ZCloudy43 39251044.1WSW 10 3726
Strathallan01:00ZNot Avail.43 38201041.5SW 17 Gusting to 27 35114
Aviemore01:00ZNot Avail.44 38301038.5SW 7 40721
Tulloch Bridge01:00ZNot Avail.44 38301041.5WSW 9 39777
Machrihanish01:00ZNot Avail.42 38121044.5SE 6 3842
Isle Of Man / Ronaldsway Airport01:00ZPartly Cloudy44 38201046.8WSW 9 3955
Scilly; Saint MaryS01:00ZNot Avail.46 38301049.4SE 9 41101
Castlederg01:00ZNot Avail.41 37201043.6S 8 36167
Bingley01:00ZNot Avail.38 37111047W 8 Gusting to 18 32859
Capel Curig01:00ZNot Avail.40 37201048.1SW 19 Gusting to 25 31708
Warcop Range01:00ZNot Avail.38 3771046.4WNW 4 35744
Shap01:00ZNot Avail.38 37101046.9SSW 9 32816
Carlisle01:00ZNot Avail.41 37251045.8N 4191
Saint Bees Head01:00ZNot Avail.40 37171046.9SW 7 35406
Glen Ogle01:00ZNot Avail.38 3720WSW 21 Gusting to 39 281850
Prestwick Rnas01:00ZNot Avail.42 37251044.5SW 10 3685
Inverbervie01:00ZNot Avail.42 37201038.5WSW 16 34439
Leuchars01:00ZNot Avail.41 37201040.5W 19 Gusting to 25 3239
Edinburgh Airport01:20ZMostly Cloudy43 37251042.2WSW 10 37134
Leeds And Bradford01:20ZNot Avail.39 37181046.6WSW 15 31682
Jersey Airport01:00ZNot Avail.42 37111048.8ENE 8 37275
Langdon Bay01:00ZNot Avail.37 36101048.5NNW 8 31383
Mumbles01:00ZNot Avail.38 3661050.4NE 5 34114
Milford Haven01:00ZNot Avail.37 3661049.3E 3 37144
Rhyl01:00ZNot Avail.39 36251048.4SSW 4 36252
Loftus Samos01:00ZNot Avail.39 36251045.5SW 6 35190
Drumalbin01:00ZNot Avail.39 36201043.9W 16 30803
Aboyne01:00ZNot Avail.46 36251037.8WSW 18 Gusting to 25 39459
Linton-On-Ouse01:00ZNot Avail.40 3681046.4SW 4 3752
Newcastle 01:20ZNot Avail.41 36201044.3WSW 12 34265
Humberside01:20ZClear37 3681047.2SW 7 32101
Guernsey Airport01:00ZClear42 36251048.9ENE 7 38334
Ballypatrick Forest01:00ZNot Avail.38 35131044.5SW 4 35511
Isle Of Portland01:00ZNot Avail.41 35201049.5ENE 6 37173
Lake Vyrnwy01:00ZNot Avail.37 35251048.4WSW 7 321181
Crosby01:00ZNot Avail.37 3591047.8S 7 3226
Bridlington Mrsc01:00ZNot Avail.37 35251046.1WSW 4 3449
Fylingdales01:00ZNot Avail.35 3525SSW 7 29859
Spadeadam01:00ZNot Avail.37 35201044.5WSW 19 Gusting to 26 27935
Leeming01:00ZNot Avail.40 35251046.0SSW 6 36131
Blackpool Airport01:00ZNot Avail.36 358SSW 8 3032
Belfast / Aldergrove Airport01:00ZNot Avail.37 35151045.1S 9 30265
Portglenone01:00ZNot Avail.36 34111044.4SSE 7 30209
Lough Fea01:00ZNot Avail.36 3491045S 6 31738
Shoeburyness01:00ZNot Avail.36 34101048.4E 5 326
Redesdale01:00ZNot Avail.38 34301044.1WSW 5 34692
Keswick01:00ZNot Avail.40 34251046.5W 2 40265
Wainfleet01:00ZNot Avail.35 3471048SW 7 299
Manston01:00ZNot Avail.36 3471048.4W 5 32180
Norwich Weather Centre01:20ZClear36 34201048.2SW 4 3345
London City Airport01:20ZClear39 3461049.1WSW 3 3916
Liverpool Airport 01:20ZPatchy Fog34 3461048.2N 1 3485
Bristol / Lulsgate 01:20ZClear36 3431048.6WSW 4 33620
Cardiff-Wales Airport01:20ZClear34 3431049.3NNW 4 30219
Birmingham / Airport01:20ZNot Avail.36 34151048.4SSW 5 32324
Belfast / Harbour01:20ZClear36 34151045.1SSE 5 3216
Kenley01:00ZNot Avail.34 33101049.0SSE 1 34557
Pershore01:00ZMist33 3351049.9SW 3 33104
Weybourne01:00ZNot Avail.38 33201048.0SSW 10 3168
Donna Nook01:00ZNot Avail.36 3371047.3SSW 8 3026
Eskdalemuir01:00ZNot Avail.34 33131045.6SSE 5 29793
Charterhall01:00ZNot Avail.37 33301042.5SW 17 27367
Cairnwell01:00ZNot Avail.34 3330WSW 18 Gusting to 29 233061
Aonach Mor01:00ZNot Avail.33 338SSW 33 Gusting to 64 183707
Holbeach01:00ZNot Avail.35 3371048.0SW 6 309
Cranwell01:00ZNot Avail.35 3341048.0W 11 27219
Waddington01:00ZMist35 3351048WSW 8 28223
Wittering01:00ZNot Avail.35 3371048.0W 11 27275
Coningsby Royal Air Force Base01:00ZMist34 3351048.0WSW 2 3422
Aberporth01:00ZShowers nearby35 33131049.4SSW 8 28436
Boulmer01:00ZNot Avail.42 33251043.1SW 7 3875
Shoreham Airport01:00ZNot Avail.35 33111049.1N 7 296
Culdrose01:00ZNot Avail.35 33191049.8ENE 7 29255
Glenanne01:00ZNot Avail.33 32101045.5SSW 8 26528
Herstmonceux01:00ZNot Avail.34 32101048.8NNE 3 34170
Camborne01:00ZClear37 32151049.8S 1 37285
Bedford01:00ZNot Avail.34 3271048.9WSW 7 28278
Church Lawford01:00ZMist33 3241049.1W 2 33351
Nottingham Weather Centre01:00ZMist33 322.751048.4WSW 5 28383
Marham01:00ZMist33 3271048.8SSE 3 3375
West Freugh01:00ZNot Avail.34 32171045.9WSW 3 3436
East Midlands01:20ZNot Avail.34 3261048.4SW 5 29308
Lydd Airport 01:20ZClear34 3281048.1NW 5 299
Southend-On-Sea 01:50ZNot Avail.36 3281048.2W 4 3349
London / Heathrow Airport01:00ZNot Avail.33 3281049.5NW 1 3378
London / Gatwick Airport01:20ZNot Avail.34 3261048.3N 1 34203
Luton Airport 01:20ZClear34 3261048.6W 4 30524
Lyneham01:00ZNot Avail.36 32201049.8WSW 5 32475
Manchester Airport01:20ZClear32 32151048.4SSE 3 32226
Thorney Island01:00ZNot Avail.33 31131049.0WNW 1 3313
Larkhill01:00ZNot Avail.32 3141049.9WNW 2 32433
Little Rissington01:00ZNot Avail.34 31171049.1WNW 4 30705
Fairford Royal Air Force Base00:56ZCloudy32 3171049.5CALM32285
Wattisham01:00ZNot Avail.33 3171048.6W 4 29285
Lakenheath Royal Air Force Base00:56ZCloudy35 31131048.5CALM3532
Hawarden01:00ZNot Avail.32 3181048.5SSW 3 3232
Boscombe Down01:00ZMist32 3141049.8CALM32406
Sennybridge01:00ZNot Avail.32 30251050.1S 3 321007
Cairngorm01:00ZNot Avail.42 3030W 49 Gusting to 72 294084
Northolt01:00ZNot Avail.31 3051049.5NNW 3 31124
Middle Wallop01:00ZNot Avail.31 3071049.8NW 2 31298
Odiham01:00ZNot Avail.33 30131049.4SSW 4 29403
Stansted Airport01:20ZClear32 30201048.4SW 5 27347
Plymouth01:00ZNot Avail.32 30101050ENE 3 32164
Saint Catherines Point01:00ZNot Avail.40 29201048.9ENE 7 3552
High Wicombe Hqstc01:00ZNot Avail.37 29201049.4WNW 2 37669
Trawscoed01:00ZNot Avail.30 29121049.5CALM30206
Great Dun Fell01:00ZNot Avail.30 297WSW 30 Gusting to 37 152778
Brize Norton01:00ZCloudy32 29201049.6SW 2 32288
Benson01:00ZNot Avail.30 2991049.6NNW 1 30206
Farnborough01:00ZNot Avail.29 2971049.4S 2 29213
Chivenor01:00ZNot Avail.31 29201049.8E 6 2526
Shobdon01:00ZNot Avail.29 2871049.8NNW 2 29324
Shawbury01:00ZNot Avail.29 2881048.9SE 1 29249
Yeovilton01:00ZMist29 2831050.0ESE 2 2975
Aberdeen / Dyce01:00ZNot Avail.31 27251038.5E 3 31213
Bournemouth Airport01:00ZMist28 2741049.5NW 2 2836
Cardinham01:00ZNot Avail.35 26251049.6SE 5 31656
Pembrey Sands01:00ZNot Avail.27 2661049.5ESE 4 229
Dunkeswell Aerodrome01:00ZNot Avail.32 25301050.1SSW 3 32826
Liscombe01:00ZNot Avail.33 21351050NW 4 291141